Wetbulb
66.70 68.96 63.90 59.28 54.15 54.23 51.43 54.85 59.71 59.56 59.99 63.63 64.38 62.44 61.36 62.58 60.23 53.94 69.36 71.18 71.69 71.60 72.42 73.39 75.13 75.19 74.04 73.36 72.75 72.54 72.13 71.62 71.52 70.75 70.53 70.93 71.45 71.60 71.60 71.52 71.48 71.84 72.91 73.88 73.58 73.35 73.39 74.10 73.69
60.00 61.86 58.99 57.81 50.79 45.75 49.80 56.61 57.94 60.58 63.42 64.90 64.95 63.70 61.75 60.13 66.33 67.07 67.36 70.69 71.07 70.56 71.20 72.83 75.43 74.25 73.45 72.78 72.59 72.06 71.38 71.25 70.88 70.47 70.84 71.20 71.28 71.42 71.40 71.57 71.90 73.08 74.30 74.14 74.45 74.13 74.04 73.89 73.71
60.53 60.91 53.07 53.42 49.28 46.27 48.48 58.15 59.94 63.28 65.46 64.52 63.73 66.28 63.47 61.94 66.77 66.87 69.51 69.93 69.67 69.14 71.25 72.23 75.11 73.83 73.33 72.68 72.29 71.60 71.08 71.02 70.33 70.44 70.90 70.66 70.73 70.82 71.15 72.32 72.40 73.96 73.55 73.59 73.42 73.28 73.06 72.90 72.74
57.20 52.99 51.23 51.30 49.76 54.33 56.40 59.22 61.62 62.13 64.54 65.45 64.80 61.01 65.36 68.42 66.95 68.83 69.86 69.56 69.13 68.97 70.18 74.19 74.54 73.71 72.89 72.41 72.04 71.31 70.90 70.64 70.28 70.47 70.51 70.42 70.47 71.07 71.97 72.83 73.13 73.04 73.21 72.78 72.46 72.12 71.75 71.58 71.09
54.78 49.89 45.54 44.93 50.04 54.98 58.20 62.84 62.83 61.83 63.68 64.03 64.53 60.90 62.04 67.35 68.91 68.82 68.83 69.24 68.45 69.43 72.02 72.78 73.84 73.16 72.61 72.23 71.84 71.03 70.85 70.29 70.23 70.37 70.20 70.14 70.48 71.17 73.02 73.01 73.20 72.84 72.28 72.02 71.72 71.71 71.77 71.42 71.39
49.96 48.09 42.92 42.79 47.76 55.38 59.50 63.16 63.00 61.79 63.21 63.69 62.76 61.85 61.62 67.68 67.06 67.88 68.86 67.70 69.88 71.29 72.48 72.27 73.64 72.94 72.26 72.23 71.61 70.86 70.47 70.11 70.16 70.33 70.06 69.64 70.23 71.20 73.27 73.37 72.76 72.44 71.90 71.62 71.38 71.33 71.17 71.60 71.60
48.48 44.64 42.15 43.57 47.70 54.46 59.20 63.03 61.26 62.09 62.24 62.48 65.04 59.97 62.26 65.47 67.61 68.67 67.70 68.32 70.39 71.52 71.32 70.94 70.75 71.22 72.14 72.00 71.35 70.65 70.37 70.07 70.60 71.03 70.63 70.25 70.05 71.21 73.12 73.17 72.55 71.95 71.75 71.42 70.93 70.77 71.07 71.57 72.61
49.28 47.03 43.93 45.39 47.58 51.60 57.47 59.42 64.48 63.13 63.14 67.03 66.28 60.03 59.63 64.83 67.93 67.19 66.45 67.38 69.57 70.41 71.16 69.42 68.71 68.67 68.21 68.66 71.37 70.70 70.09 69.81 70.34 69.95 69.84 70.46 69.96 71.03 72.60 73.32 72.85 71.66 71.15 70.78 70.59 70.99 70.83 71.24 71.05
49.06 42.80 40.19 44.01 50.12 53.35 55.40 59.52 63.87 66.06 63.81 64.97 66.45 64.83 66.41 67.27 67.01 65.06 63.74 65.51 68.27 70.37 69.80 69.32 68.33 67.28 67.17 67.56 69.37 70.67 70.02 69.53 69.71 69.61 70.21 68.84 63.76 65.10 68.19 70.79 72.48 71.48 70.85 69.97 70.52 71.27 71.39 71.29 70.55
46.88 41.68 44.39 49.79 54.36 54.89 57.74 61.81 63.04 62.72 62.62 62.73 64.04 66.49 67.50 67.10 65.13 62.58 62.45 63.83 65.22 68.58 69.08 69.10 68.11 66.67 65.96 69.09 67.04 65.94 66.10 65.34 65.84 65.99 65.38 64.51 62.72 63.20 65.86 69.94 72.62 71.78 70.62 69.99 70.61 71.14 71.32 68.95 65.57
46.83 45.95 48.93 52.84 53.64 58.85 59.36 60.09 62.98 62.19 59.10 62.77 62.17 64.30 65.51 65.51 63.67 62.61 63.26 64.23 64.70 68.06 69.09 68.77 67.94 66.84 65.35 65.65 66.13 64.76 64.76 64.28 64.13 63.76 62.66 62.73 64.31 64.63 65.46 65.75 69.29 68.77 70.16 65.48 66.32 64.60 60.63 60.58 62.66
45.22 49.94 50.75 51.41 59.09 59.11 58.52 60.02 61.84 61.52 62.37 65.80 65.47 65.23 65.29 65.02 62.00 62.59 62.80 63.47 64.02 67.10 68.20 68.27 67.92 66.83 64.14 64.80 65.31 64.41 64.18 63.74 63.55 64.47 62.95 64.70 65.28 63.81 63.55 64.28 64.72 66.99 65.69 65.45 64.77 61.54 61.59 61.03 62.84
45.33 48.97 51.19 52.71 58.20 58.78 60.64 58.69 58.60 59.25 64.81 66.01 65.68 65.45 64.48 63.13 61.86 62.78 63.19 63.50 63.01 66.39 67.37 66.39 67.17 66.59 63.08 62.65 62.64 63.20 63.94 64.47 64.58 65.89 66.42 67.46 67.05 66.43 66.97 62.75 63.51 65.73 66.37 65.58 64.05 61.20 59.20 61.20 59.64
48.10 48.36 48.15 50.59 54.65 58.18 58.07 58.28 59.91 61.26 64.33 64.11 64.63 63.18 63.30 62.13 61.42 59.76 60.22 59.87 62.24 66.27 64.56 65.04 66.39 65.30 63.35 61.84 61.61 62.99 63.93 64.90 65.83 67.16 67.28 68.36 67.79 66.12 66.35 65.26 64.10 63.43 66.03 65.88 62.48 59.12 60.71 60.61 58.45
48.83 46.70 47.69 49.35 51.53 52.94 59.77 57.11 58.15 61.93 63.37 62.58 63.01 63.11 63.08 62.74 61.10 60.58 61.52 61.08 63.44 65.14 65.57 65.34 66.61 66.44 63.88 65.87 64.19 64.70 65.41 65.65 66.22 67.06 67.19 67.40 67.73 68.20 65.83 65.52 64.16 64.60 63.27 63.51 62.31 59.43 59.40 60.16 58.86
46.78 46.68 41.34 45.99 50.67 54.53 56.88 51.77 59.02 61.76 61.62 61.11 62.34 63.05 63.18 62.46 60.97 61.21 62.00 62.39 64.44 65.40 65.49 65.22 68.68 68.04 68.30 68.91 66.77 66.35 65.12 65.67 65.42 67.45 68.15 68.84 69.97 68.64 66.64 65.85 64.20 65.43 63.50 63.83 60.09 58.39 57.58 58.17 59.51
44.15 41.13 41.14 45.55 47.89 49.45 48.08 50.46 59.71 61.60 61.28 60.41 61.55 62.51 63.39 62.64 62.12 62.29 63.09 63.72 63.63 65.47 64.96 65.55 66.44 66.44 67.93 68.48 68.36 68.38 67.96 67.65 67.71 67.93 67.61 68.74 68.89 68.90 67.16 64.91 63.66 64.67 63.75 61.85 60.99 59.60 57.61 58.36 58.27
40.50 40.91 41.48 42.82 47.27 46.87 47.34 53.37 59.40 60.65 60.86 60.44 61.41 62.51 63.32 63.15 63.37 64.52 64.98 65.67 65.32 65.65 65.91 66.61 67.14 66.64 66.99 67.86 68.91 68.48 67.50 67.45 67.95 67.85 67.73 68.58 68.64 69.16 66.70 64.36 62.90 64.26 62.96 61.13 61.10 59.58 59.38 59.13 58.65
45.06 43.37 43.51 46.39 48.60 46.23 46.91 54.41 58.02 59.90 60.65 60.05 60.98 62.10 63.05 63.61 65.17 65.46 66.43 66.80 66.59 66.30 66.02 66.24 67.24 66.78 66.36 66.97 67.84 67.28 67.01 67.32 66.85 67.57 68.43 68.07 69.36 67.41 63.60 61.70 61.23 61.82 61.78 61.53 60.42 59.87 58.48 58.21 58.41
44.47 43.29 43.00 45.40 48.57 45.92 46.60 52.72 57.59 59.04 59.86 60.86 61.40 62.02 63.04 63.43 63.78 65.30 65.86 66.93 67.11 66.74 66.98 66.92 67.97 67.56 66.72 67.46 67.52 68.40 67.37 67.66 68.35 67.40 68.36 67.92 66.03 64.86 63.60 62.91 61.76 62.17 62.74 62.32 61.98 59.93 58.20 58.58 58.64
43.40 41.51 42.14 42.78 46.73 46.92 45.35 44.30 50.92 54.94 60.18 61.80 62.14 62.47 63.84 63.89 63.99 64.75 64.79 67.03 68.02 67.10 67.21 67.59 68.82 67.88 67.61 67.46 68.08 67.88 67.50 66.81 66.40 65.82 65.73 66.85 65.84 65.32 64.18 63.27 62.61 62.32 62.83 61.96 60.61 59.64 58.47 56.90 57.85
41.07 47.07 46.99 46.27 44.44 39.73 45.67 37.57 45.84 51.47 57.08 59.10 59.71 59.96 62.60 63.99 65.17 65.26 64.68 64.18 68.43 68.46 69.02 69.18 69.16 68.24 68.06 68.56 68.03 67.18 65.83 64.66 65.64 65.83 65.93 66.18 66.43 65.89 65.51 64.21 63.94 62.75 63.16 62.02 61.92 61.99 59.53 58.31 57.39
45.73 47.79 46.15 45.41 42.43 40.83 43.65 39.86 42.13 50.50 52.01 56.26 58.82 61.10 62.44 64.51 65.44 64.80 64.77 65.65 65.59 69.21 70.68 70.82 69.87 68.32 68.21 68.99 68.45 66.99 65.45 65.76 65.13 65.93 66.25 66.23 66.32 66.29 66.49 64.91 63.99 62.98 62.71 62.55 62.05 61.90 60.70 59.94 58.90
50.49 46.01 43.91 42.56 41.21 37.58 41.88 41.06 40.92 47.53 52.25 53.88 58.77 61.55 62.67 64.22 65.72 65.86 65.53 65.83 66.50 67.36 70.41 71.12 69.43 68.11 68.08 68.08 67.34 67.39 67.23 66.85 66.23 64.90 65.57 65.58 65.72 65.54 65.74 65.73 64.33 63.44 62.64 62.15 61.89 62.04 61.54 60.92 59.31
47.35 40.62 35.03 35.42 35.89 37.69 43.27 41.78 44.01 48.57 54.50 55.72 57.45 60.12 61.69 63.42 65.04 64.74 64.27 65.32 66.44 68.81 70.33 70.27 69.90 68.85 69.27 69.49 69.43 68.08 67.54 66.63 66.03 64.62 64.75 64.33 64.85 65.29 65.77 64.84 64.39 63.74 63.13 63.26 62.68 61.31 61.04 61.24 59.87
44.64 43.29 37.99 33.78 35.43 38.00 43.47 40.41 44.93 51.69 55.02 56.05 58.83 58.63 58.33 62.05 64.21 64.53 66.07 66.20 67.41 69.03 69.05 69.42 69.96 69.99 70.12 70.33 69.71 70.10 68.64 67.30 66.71 65.23 65.77 64.68 64.55 65.03 65.58 65.25 65.08 64.84 64.24 63.62 62.75 62.06 61.84 61.25 61.48
46.56 41.89 45.52 40.94 38.71 37.45 39.87 46.60 51.46 54.25 53.74 53.95 54.23 56.54 57.22 58.58 61.78 63.73 63.73 65.73 66.02 66.23 66.54 66.88 65.76 66.31 67.63 69.55 69.74 68.58 67.86 67.21 67.23 66.12 65.66 65.83 65.49 66.74 65.76 64.67 64.46 64.66 64.67 64.51 62.94 62.66 62.83 60.48 61.86
48.34 48.83 42.26 39.09 34.47 33.63 40.28 44.47 44.82 49.91 51.44 52.13 53.30 54.40 56.62 58.97 61.68 62.54 63.35 64.52 64.50 64.49 63.10 61.86 61.97 60.53 65.05 67.65 67.84 67.86 67.61 68.02 67.50 66.35 63.33 62.23 61.40 62.00 62.27 63.57 64.12 63.69 63.89 63.28 61.76 61.33 60.88 59.62 60.60
46.35 43.63 44.61 43.62 41.59 37.81 36.88 42.82 49.35 50.40 51.00 50.26 51.64 53.88 56.30 59.11 60.58 62.59 63.23 64.56 63.34 62.12 61.17 60.41 59.52 63.41 65.18 66.01 65.83 66.02 65.83 66.85 65.18 63.77 62.44 61.68 61.92 63.08 63.47 64.35 63.91 63.39 62.68 61.79 60.10 59.87 60.41 60.12 59.64
49.71 48.01 45.34 40.91 39.03 42.80 44.00 42.68 53.17 52.56 53.32 55.50 54.76 55.02 55.65 57.01 58.06 61.47 62.25 61.28 61.48 59.35 58.87 59.42 63.15 60.02 60.21 64.09 64.27 63.54 63.79 62.98 62.30 61.95 61.53 62.01 62.58 62.49 62.25 62.69 62.10 61.70 61.93 61.53 60.50 59.83 59.52 58.20 57.24
MSLP
1010.37 1010.62 1010.84 1011.24 1012.23 1011.87 1010.97 1009.99 1009.06 1008.30 1008.78 1009.11 1009.07 1009.51 1010.26 1011.16 1012.04 1014.02 1013.69 1014.48 1014.82 1015.38 1015.51 1015.71 1015.89 1016.11 1016.36 1016.49 1016.67 1016.74 1016.72 1016.74 1016.64 1016.70 1016.80 1016.72 1016.65 1016.55 1016.51 1016.42 1016.35 1016.24 1016.20 1016.11 1016.11 1016.19 1016.30 1016.38 1016.45
1010.17 1010.57 1010.99 1011.05 1011.78 1011.94 1010.79 1009.67 1008.94 1008.44 1009.14 1008.91 1009.31 1009.88 1010.63 1012.20 1012.59 1013.82 1014.41 1015.02 1015.33 1015.54 1015.66 1015.84 1016.07 1016.32 1016.51 1016.59 1016.71 1016.77 1016.74 1016.80 1016.86 1016.98 1016.95 1016.90 1016.89 1016.83 1016.75 1016.70 1016.59 1016.52 1016.37 1016.28 1016.34 1016.39 1016.49 1016.53 1016.56
1009.88 1009.89 1010.84 1011.04 1011.77 1011.36 1010.27 1009.43 1009.06 1009.10 1009.01 1008.69 1009.56 1010.06 1011.13 1012.73 1013.35 1013.76 1014.31 1015.00 1015.40 1015.69 1015.68 1015.93 1016.23 1016.46 1016.64 1016.77 1016.88 1016.95 1016.96 1016.92 1017.04 1017.10 1017.07 1017.10 1017.12 1017.12 1017.08 1016.97 1016.82 1016.67 1016.68 1016.67 1016.69 1016.77 1016.74 1016.77 1016.70
1009.86 1010.43 1010.86 1010.86 1010.74 1009.75 1009.09 1008.83 1008.70 1009.00 1009.39 1009.28 1009.87 1010.53 1011.32 1011.78 1012.69 1013.49 1014.48 1014.94 1015.60 1015.96 1016.01 1016.14 1016.41 1016.65 1016.85 1016.97 1017.09 1017.14 1017.20 1017.22 1017.27 1017.35 1017.38 1017.36 1017.35 1017.26 1017.18 1017.09 1017.06 1017.01 1016.99 1016.98 1017.03 1017.12 1017.14 1017.02 1016.79
1009.94 1010.72 1011.17 1010.79 1009.87 1008.67 1008.91 1008.50 1008.20 1008.57 1009.25 1009.55 1010.00 1010.97 1011.84 1012.34 1012.59 1013.69 1014.59 1015.12 1015.53 1016.00 1016.12 1016.34 1016.49 1016.64 1016.85 1016.99 1017.18 1017.22 1017.26 1017.40 1017.49 1017.54 1017.43 1017.39 1017.37 1017.31 1017.25 1017.30 1017.22 1017.24 1017.27 1017.20 1017.20 1017.44 1017.47 1017.33 1017.06
1010.52 1010.95 1011.13 1010.53 1008.97 1007.71 1008.00 1008.52 1008.16 1008.34 1009.27 1010.11 1010.57 1011.09 1012.36 1012.69 1013.11 1014.16 1014.51 1014.97 1015.05 1015.51 1015.98 1016.24 1016.43 1016.62 1016.87 1017.00 1017.13 1017.26 1017.41 1017.50 1017.52 1017.52 1017.59 1017.51 1017.53 1017.49 1017.44 1017.48 1017.55 1017.45 1017.46 1017.49 1017.43 1017.48 1017.70 1017.55 1017.24
1010.26 1010.83 1010.56 1009.53 1008.33 1006.90 1007.64 1008.24 1007.79 1008.56 1009.35 1009.99 1010.08 1011.28 1012.58 1013.14 1013.23 1013.89 1014.41 1014.96 1015.12 1015.53 1015.94 1016.36 1016.55 1016.68 1016.85 1016.99 1017.15 1017.30 1017.36 1017.45 1017.55 1017.63 1017.70 1017.68 1017.71 1017.75 1017.61 1017.66 1017.67 1017.66 1017.58 1017.64 1017.61 1017.58 1017.65 1017.72 1017.55
1009.43 1010.20 1009.88 1008.92 1008.05 1007.55 1007.48 1007.63 1007.75 1007.97 1009.06 1009.58 1009.93 1010.83 1012.13 1012.59 1013.16 1013.95 1014.60 1015.06 1015.43 1015.75 1015.92 1016.37 1016.72 1016.92 1017.17 1017.27 1017.37 1017.48 1017.59 1017.62 1017.75 1017.82 1017.90 1017.92 1017.94 1018.00 1017.98 1017.77 1017.78 1017.81 1017.81 1017.78 1017.70 1017.65 1017.75 1017.84 1017.93
1008.65 1009.48 1009.51 1008.80 1007.99 1007.47 1007.31 1007.09 1008.21 1008.07 1008.99 1009.39 1009.55 1010.03 1010.57 1012.01 1013.20 1014.18 1014.93 1015.61 1015.91 1016.06 1016.17 1016.32 1016.70 1017.00 1017.25 1017.43 1017.48 1017.57 1017.62 1017.72 1017.85 1017.90 1017.91 1017.90 1018.07 1018.10 1017.95 1017.89 1017.86 1017.89 1017.90 1017.78 1017.69 1017.63 1017.58 1017.87 1018.09
1008.55 1009.07 1008.15 1007.17 1006.91 1006.74 1007.11 1006.55 1007.45 1008.32 1009.18 1009.63 1009.90 1010.49 1010.81 1011.97 1013.05 1013.91 1014.59 1015.25 1015.72 1015.84 1016.12 1016.30 1016.59 1016.95 1017.30 1017.29 1017.53 1017.68 1017.71 1017.81 1017.86 1017.88 1017.95 1018.01 1018.05 1018.16 1017.99 1018.02 1017.91 1018.00 1018.01 1017.85 1017.82 1017.68 1017.73 1017.68 1018.16
1007.57 1007.59 1006.82 1005.90 1006.31 1006.03 1006.53 1007.00 1007.33 1008.34 1009.64 1009.06 1009.60 1010.20 1010.89 1011.84 1012.81 1013.40 1013.94 1014.15 1014.34 1014.98 1015.61 1015.91 1016.25 1016.59 1016.85 1016.92 1017.44 1017.62 1017.63 1017.70 1017.77 1017.80 1017.90 1018.01 1017.99 1018.04 1018.11 1018.17 1018.02 1018.08 1017.92 1018.07 1017.92 1017.91 1018.02 1017.88 1018.07
1007.02 1006.42 1006.39 1005.51 1005.24 1006.08 1006.42 1006.95 1007.57 1007.55 1008.36 1008.78 1009.26 1009.82 1010.49 1011.52 1012.50 1012.95 1013.49 1013.90 1014.31 1014.80 1015.07 1015.61 1015.76 1016.15 1016.53 1016.89 1017.26 1017.42 1017.58 1017.73 1017.82 1017.71 1017.74 1017.91 1018.00 1018.04 1018.14 1018.18 1018.12 1017.99 1018.13 1018.19 1018.03 1018.16 1018.19 1018.12 1018.40
1006.75 1006.06 1005.04 1004.96 1005.22 1005.74 1006.14 1006.84 1007.45 1007.98 1008.54 1009.04 1009.45 1010.06 1010.75 1011.30 1011.91 1012.31 1012.53 1013.04 1013.64 1014.17 1014.67 1015.27 1015.68 1015.99 1016.23 1016.72 1017.12 1017.44 1017.43 1017.54 1017.55 1017.59 1017.51 1017.68 1017.67 1017.76 1017.71 1018.12 1018.17 1017.97 1017.98 1018.13 1018.22 1018.32 1018.33 1018.34 1018.70
1006.18 1005.82 1005.44 1004.73 1004.91 1005.47 1005.98 1007.19 1007.16 1008.68 1008.54 1009.10 1009.51 1010.12 1010.65 1011.05 1011.46 1011.91 1012.54 1013.12 1013.44 1013.82 1014.40 1014.85 1015.45 1015.55 1015.94 1016.35 1016.73 1016.97 1017.03 1017.03 1017.34 1017.26 1017.27 1017.27 1017.31 1017.64 1017.79 1018.06 1018.15 1017.97 1017.91 1017.92 1018.04 1018.29 1018.25 1018.66 1018.78
1006.19 1005.87 1005.09 1004.60 1004.39 1005.65 1005.95 1007.77 1007.97 1008.29 1008.44 1008.97 1009.47 1009.88 1010.30 1010.72 1011.05 1011.36 1011.75 1012.56 1012.98 1013.47 1014.00 1014.58 1015.07 1015.26 1015.64 1015.95 1016.24 1016.60 1016.72 1016.90 1017.11 1017.01 1017.19 1017.36 1017.32 1017.34 1017.60 1017.68 1017.82 1017.78 1017.90 1017.96 1017.98 1018.16 1018.31 1018.36 1018.85
1006.41 1005.93 1005.75 1004.70 1004.26 1005.58 1005.50 1007.66 1008.20 1008.21 1008.44 1008.99 1009.26 1009.55 1009.97 1010.44 1010.66 1011.03 1011.49 1012.02 1012.71 1013.28 1013.79 1014.32 1014.68 1015.10 1015.53 1015.89 1016.07 1016.26 1016.44 1016.74 1016.87 1016.81 1016.97 1016.93 1017.11 1017.23 1017.45 1017.59 1017.89 1017.88 1017.90 1018.00 1018.15 1018.42 1018.66 1018.58 1018.73
1007.33 1006.78 1006.14 1005.35 1004.56 1004.91 1005.55 1007.18 1007.47 1007.36 1007.91 1008.67 1008.97 1009.07 1009.52 1009.92 1010.40 1010.79 1011.05 1011.64 1012.36 1012.83 1013.54 1014.03 1014.26 1014.68 1015.13 1015.39 1015.59 1015.93 1016.20 1016.36 1016.41 1016.62 1016.92 1017.03 1016.98 1016.94 1017.20 1017.53 1017.70 1017.77 1018.06 1018.23 1018.31 1018.39 1018.44 1018.75 1018.76
1007.92 1007.29 1006.39 1005.75 1004.90 1005.16 1005.63 1006.54 1007.16 1007.22 1007.54 1008.15 1008.33 1008.64 1009.18 1009.59 1009.79 1010.32 1010.75 1011.26 1011.87 1012.50 1013.15 1013.61 1014.05 1014.68 1015.12 1015.43 1015.77 1016.19 1016.42 1016.54 1016.63 1016.77 1016.90 1016.76 1016.80 1016.86 1017.10 1017.34 1017.48 1017.68 1018.06 1018.38 1018.56 1018.59 1018.62 1018.54 1018.50
1007.83 1007.50 1006.89 1005.58 1004.83 1005.49 1005.64 1006.27 1006.83 1007.29 1007.68 1007.90 1008.02 1008.24 1008.72 1008.97 1009.13 1009.86 1010.39 1011.15 1011.90 1012.59 1013.34 1013.85 1014.09 1014.48 1014.96 1015.37 1015.83 1016.39 1016.73 1016.71 1016.78 1016.61 1016.54 1016.67 1016.64 1016.96 1017.31 1017.44 1017.45 1017.72 1018.15 1018.34 1018.40 1018.52 1018.78 1018.84 1018.70
1007.57 1007.41 1006.79 1005.97 1005.14 1005.76 1005.91 1006.05 1006.26 1006.72 1006.56 1006.67 1007.19 1007.70 1008.01 1008.61 1009.06 1009.64 1010.33 1010.98 1011.77 1012.39 1012.86 1013.34 1013.74 1014.33 1014.84 1015.23 1015.52 1015.82 1016.11 1016.21 1016.13 1016.22 1016.37 1016.73 1016.92 1016.92 1017.13 1017.23 1017.51 1017.47 1018.00 1018.49 1018.57 1018.61 1018.65 1018.59 1018.44
1007.03 1007.08 1006.59 1006.35 1005.31 1005.08 1005.61 1006.49 1006.78 1006.68 1006.42 1006.55 1006.64 1006.68 1007.32 1007.67 1008.43 1009.20 1009.99 1010.52 1011.31 1011.85 1012.31 1012.88 1013.69 1014.22 1014.74 1015.08 1015.43 1015.72 1015.94 1015.96 1016.19 1016.42 1016.42 1016.49 1016.73 1016.74 1016.76 1017.01 1017.08 1017.14 1017.20 1017.57 1018.11 1018.64 1018.71 1018.74 1018.56
1006.39 1005.85 1005.95 1005.86 1006.02 1005.92 1005.25 1006.42 1006.42 1006.34 1006.37 1006.64 1006.52 1006.80 1006.94 1007.39 1007.95 1008.61 1009.53 1010.22 1010.62 1011.39 1012.13 1012.57 1013.42 1014.31 1015.03 1015.32 1015.68 1015.73 1015.72 1016.06 1016.11 1016.07 1016.25 1016.45 1016.47 1016.54 1016.76 1016.91 1017.23 1017.40 1017.26 1017.31 1017.45 1017.72 1018.50 1018.80 1018.72
1005.57 1005.09 1005.37 1005.83 1006.32 1006.46 1006.15 1006.57 1005.69 1005.92 1006.45 1006.15 1005.89 1005.84 1006.07 1006.60 1007.28 1008.24 1008.96 1009.68 1010.37 1011.05 1011.91 1012.66 1013.57 1014.34 1014.62 1015.19 1015.34 1015.78 1016.10 1016.22 1016.15 1016.17 1016.42 1016.49 1016.39 1016.47 1016.54 1016.65 1016.84 1017.21 1017.37 1017.59 1017.56 1017.62 1017.77 1018.15 1018.43
1004.80 1004.96 1005.53 1006.26 1006.82 1007.01 1006.41 1006.60 1005.73 1005.40 1004.39 1004.78 1005.11 1005.48 1005.69 1006.34 1007.08 1007.89 1008.76 1009.55 1010.41 1011.47 1012.25 1012.91 1013.77 1014.37 1015.07 1015.52 1015.86 1015.85 1015.84 1015.62 1015.92 1016.17 1016.31 1016.53 1016.43 1016.54 1016.69 1016.62 1016.76 1017.00 1017.17 1016.95 1016.90 1016.95 1017.28 1017.44 1017.67
1004.56 1005.93 1006.63 1007.40 1007.43 1007.16 1006.03 1006.42 1005.07 1003.65 1003.00 1002.89 1003.78 1004.75 1005.43 1005.94 1006.86 1008.09 1008.99 1010.06 1011.14 1011.79 1012.39 1013.25 1013.71 1014.22 1014.28 1014.44 1014.81 1015.00 1015.10 1015.48 1015.95 1016.15 1016.39 1016.53 1016.62 1016.47 1016.28 1016.65 1016.68 1016.83 1016.70 1016.47 1016.55 1016.82 1016.88 1016.80 1016.93
1004.74 1005.51 1006.72 1007.49 1007.77 1007.03 1006.16 1005.82 1004.55 1003.38 1002.32 1002.32 1002.83 1003.97 1004.96 1006.08 1006.93 1008.02 1009.13 1010.26 1010.99 1011.66 1012.25 1012.96 1013.40 1013.70 1013.61 1013.35 1013.80 1014.38 1014.86 1015.07 1015.90 1016.51 1016.11 1016.21 1016.46 1016.30 1015.82 1016.01 1015.89 1016.12 1016.28 1016.17 1016.36 1016.68 1016.63 1016.55 1016.52
1004.35 1005.04 1005.20 1006.91 1007.45 1007.41 1006.17 1005.38 1004.10 1003.16 1003.35 1002.71 1003.65 1004.80 1006.13 1006.63 1007.48 1008.66 1009.88 1010.34 1010.98 1011.24 1011.65 1011.59 1011.56 1012.23 1012.81 1013.48 1013.95 1014.43 1014.78 1015.14 1015.95 1016.65 1016.34 1015.96 1015.97 1015.65 1015.55 1015.79 1015.92 1016.06 1016.05 1016.02 1016.20 1016.43 1016.36 1016.33 1016.12
1003.82 1003.81 1005.14 1006.87 1007.41 1007.41 1006.73 1006.21 1004.93 1004.25 1004.88 1005.16 1005.39 1005.85 1006.72 1007.10 1008.20 1009.38 1010.19 1010.59 1010.97 1010.81 1010.70 1010.95 1010.54 1012.07 1013.32 1013.44 1013.99 1014.42 1014.60 1014.78 1015.55 1016.63 1016.08 1015.91 1015.90 1015.61 1015.83 1016.02 1015.92 1015.76 1015.81 1015.74 1015.90 1016.02 1016.01 1016.11 1015.68
1004.29 1004.12 1004.69 1005.68 1006.52 1006.73 1006.75 1006.53 1005.02 1004.56 1005.18 1006.16 1006.83 1007.24 1007.38 1008.23 1009.14 1010.23 1010.75 1011.11 1011.54 1012.08 1012.16 1011.76 1012.42 1013.26 1013.83 1014.01 1014.25 1014.45 1014.71 1015.05 1015.18 1015.99 1015.68 1015.69 1015.57 1015.57 1015.57 1015.63 1015.64 1015.74 1015.66 1015.61 1015.53 1015.75 1015.80 1015.77 1015.63
1004.72 1004.45 1004.47 1005.42 1006.44 1006.42 1006.42 1005.98 1004.54 1004.01 1004.60 1006.53 1007.18 1008.14 1008.15 1009.16 1009.92 1010.78 1011.33 1011.79 1012.23 1013.00 1013.24 1013.07 1013.52 1014.09 1014.03 1013.79 1013.94 1014.07 1014.70 1015.20 1015.91 1016.01 1015.68 1015.34 1015.58 1015.68 1015.79 1015.74 1015.91 1015.82 1015.65 1015.56 1015.63 1015.78 1015.82 1015.79 1015.56
Wind_Speed
4 5 2 3 3 5 2 3 7 7 7 10 11 6 5 12 2 4 3 10 17 12 11 11 13 15 15 15 14 13 12 12 12 12 12 12 12 12 12 12 11 11 11 9 11 10 10 9 9
3 5 2 0 6 3 3 2 10 10 15 18 16 12 9 5 8 12 7 11 10 10 7 8 14 15 15 15 13 13 12 11 11 11 12 12 12 12 11 11 11 11 11 12 13 14 14 14 13
3 2 3 3 5 3 2 10 16 17 14 8 6 5 6 7 13 6 12 15 10 8 9 11 16 15 14 14 13 12 11 11 11 11 11 11 11 11 11 10 11 12 12 11 12 13 13 13 12
2 4 4 3 3 5 3 10 16 16 15 13 13 5 6 11 7 10 17 15 12 7 7 13 14 14 14 13 12 11 10 10 10 10 10 10 10 10 11 11 10 12 11 10 10 12 12 13 9
4 3 4 2 6 4 6 13 14 10 7 15 9 8 5 3 16 21 18 15 13 9 6 9 15 15 14 13 12 11 11 9 9 9 10 10 9 10 10 11 11 10 9 9 9 11 13 13 12
4 3 2 3 7 10 11 14 13 13 13 12 13 10 3 16 21 16 16 13 13 14 9 9 14 15 13 13 12 10 10 9 9 8 8 8 8 9 9 10 9 9 7 7 9 11 13 13 14
4 4 4 4 5 8 18 14 13 18 15 8 14 9 7 16 17 17 14 12 12 11 10 6 6 11 14 13 11 10 10 9 8 6 5 5 6 7 8 9 8 7 6 7 7 8 10 11 16
5 5 4 3 4 8 10 8 17 20 5 16 18 7 12 14 19 15 12 11 11 10 10 8 6 6 5 5 10 9 9 8 7 6 4 3 4 5 6 6 6 5 5 4 4 5 7 9 8
3 3 3 4 7 8 5 19 8 6 16 6 5 9 17 17 20 15 12 7 8 9 9 9 8 7 6 6 6 8 9 8 7 6 6 4 2 2 2 5 6 5 4 2 4 8 7 6 8
5 4 7 8 5 13 10 25 15 11 10 9 11 11 9 19 20 18 14 12 10 11 10 9 8 7 7 7 5 5 5 4 5 5 5 3 4 3 4 5 7 5 2 2 3 5 8 6 4
4 7 4 14 11 9 14 9 7 18 4 17 19 16 12 16 18 18 15 18 19 14 10 12 11 9 10 7 4 3 3 3 4 6 5 5 3 2 3 2 2 2 4 1 2 4 3 6 4
3 8 5 7 8 9 14 10 11 7 8 15 15 13 8 10 18 16 15 15 12 14 13 12 11 10 9 5 5 4 4 3 3 4 6 3 3 3 3 3 3 3 0 2 2 2 3 6 6
4 6 9 3 13 11 11 9 8 7 16 13 13 11 8 8 16 16 16 13 12 15 13 11 11 11 8 8 5 4 5 4 4 4 5 4 3 4 3 3 3 4 4 3 3 0 4 5 5
5 6 5 6 12 10 13 6 7 8 17 15 14 9 8 9 10 6 8 8 11 15 11 10 13 11 9 7 6 6 4 5 5 5 5 5 4 4 4 3 2 3 3 3 3 3 3 5 5
4 8 7 5 8 6 15 5 12 17 18 18 16 11 9 10 9 12 13 12 14 15 12 11 12 9 10 8 8 5 7 5 4 5 4 5 4 4 3 2 2 2 3 5 4 3 3 4 4
6 3 2 6 7 11 11 8 13 18 19 18 17 14 13 10 12 11 12 13 11 13 14 12 12 10 8 7 6 4 4 4 4 4 5 6 5 4 3 3 3 2 3 2 2 1 2 2 4
7 3 2 9 2 6 5 7 20 22 19 17 16 16 14 12 9 9 13 13 12 14 10 9 8 10 9 7 5 4 5 3 3 4 4 5 6 6 4 3 4 2 2 2 2 2 2 3 1
4 3 4 2 7 3 3 9 20 20 21 20 18 15 14 13 16 11 11 13 14 11 10 9 6 7 7 5 4 3 4 1 3 4 4 7 5 5 5 4 4 3 3 1 2 3 1 2 2
3 4 6 7 7 6 8 14 22 20 18 18 17 16 16 15 12 11 9 12 12 9 11 10 10 8 5 3 4 3 3 3 2 3 7 5 3 5 5 3 3 2 2 3 4 2 3 2 1
5 7 10 8 9 8 7 12 21 21 22 22 20 16 18 12 8 10 9 12 15 16 13 10 10 9 6 5 3 3 4 4 2 3 3 5 5 6 6 5 4 4 1 3 4 3 2 2 2
7 6 7 10 7 5 7 3 7 9 11 16 17 19 15 19 14 12 10 14 13 15 13 12 10 11 8 5 3 2 2 2 2 1 2 4 6 7 6 6 5 6 4 4 4 3 4 4 2
9 7 7 5 1 5 4 6 5 8 15 15 18 13 14 15 13 13 12 11 16 14 12 12 10 10 6 8 5 5 4 4 3 4 3 4 6 6 5 5 5 5 4 4 4 4 4 2 5
14 9 7 4 4 3 3 5 8 6 10 17 20 19 16 16 17 16 14 14 9 12 14 12 10 10 7 9 6 3 2 1 0 2 5 5 5 6 6 6 5 5 4 4 5 4 5 4 3
9 2 4 4 3 0 8 7 7 7 18 18 16 20 18 16 17 15 11 8 7 7 7 8 8 5 4 1 3 7 8 7 4 2 4 4 3 3 5 5 5 5 6 6 6 6 6 5 5
3 6 4 6 3 6 6 4 9 9 16 18 19 19 18 17 16 13 11 8 10 9 9 7 9 7 8 8 8 9 8 4 5 3 3 3 2 3 6 5 6 5 6 6 5 5 6 6 4
7 8 7 6 4 5 1 5 5 8 9 10 16 15 9 11 12 14 13 13 13 13 12 10 9 8 11 11 10 6 4 3 3 4 3 3 3 4 3 6 6 7 7 6 5 4 6 6 6
3 3 9 5 2 3 3 6 6 13 12 4 10 13 12 11 12 14 14 15 14 14 14 13 13 7 7 3 3 3 3 4 5 7 5 2 3 1 3 1 3 5 6 7 5 5 8 5 7
8 5 1 2 4 5 1 2 4 8 8 4 11 13 11 13 15 15 13 15 12 16 14 9 7 6 7 4 4 2 5 6 6 6 3 3 3 1 2 4 4 5 6 6 5 5 6 5 7
7 5 2 5 5 7 2 6 5 5 6 6 8 7 9 13 14 14 13 11 7 6 3 2 9 9 6 6 4 4 3 3 5 5 4 4 0 3 4 5 4 4 5 6 2 5 6 5 6
10 10 5 6 5 2 4 7 5 7 13 14 12 7 9 8 10 11 10 6 5 4 5 7 8 6 5 5 4 4 5 6 3 5 5 2 5 5 6 5 5 5 5 5 5 6 6 5 6
Wind_Direction
146 168 174 79 49 56 265 225 147 94 67 80 88 103 120 30 77 182 44 123 127 138 139 138 136 123 118 113 113 109 102 99 94 90 84 80 76 72 65 61 58 58 59 56 73 78 78 72 68
185 163 36 51 79 62 270 95 102 106 123 102 88 81 46 79 64 118 95 128 131 130 121 122 127 122 122 124 122 116 111 103 95 90 88 85 77 69 63 57 56 54 57 59 65 65 66 68 70
196 121 81 108 118 177 184 138 122 126 144 102 98 57 80 105 120 128 127 138 141 136 132 136 129 130 131 128 123 117 113 108 104 104 99 87 77 68 62 63 64 55 55 54 58 62 64 67 68
125 21 11 75 266 235 141 140 121 116 110 88 117 65 67 135 127 138 143 139 133 132 123 131 130 131 130 127 124 120 118 118 116 111 98 87 76 69 67 70 69 67 65 56 48 55 56 56 49
25 55 61 300 224 255 106 139 135 102 84 100 134 115 86 81 127 141 142 141 139 132 130 131 136 135 136 134 131 129 132 128 124 117 107 95 86 84 81 88 83 75 66 57 42 43 45 38 24
10 102 68 214 247 263 132 152 135 103 114 107 108 109 116 138 135 146 147 148 143 138 136 147 145 142 144 142 141 141 140 137 140 129 112 103 94 96 96 97 90 83 70 50 35 31 44 34 30
140 91 219 250 280 119 145 160 127 134 141 129 131 114 144 148 150 151 143 137 135 136 136 136 145 150 150 150 152 153 151 154 155 141 131 116 100 108 111 113 103 95 80 51 32 26 36 46 59
129 105 288 312 7 128 152 126 145 145 127 136 139 150 166 164 152 137 133 136 141 145 145 146 150 135 140 151 159 159 159 158 163 150 149 147 122 124 127 124 120 108 82 45 0 10 36 51 65
136 49 285 244 154 152 155 116 161 107 134 181 200 140 169 136 135 131 131 136 148 160 162 156 158 156 154 160 177 170 166 167 172 169 187 183 181 180 206 178 158 151 137 87 346 343 357 33 71
127 146 230 200 160 150 158 121 128 131 136 95 100 145 135 138 147 148 155 165 174 171 177 168 163 163 162 169 173 175 184 179 190 192 205 198 219 203 208 212 177 166 187 182 280 315 355 348 97
197 210 236 278 202 157 138 128 119 121 142 153 149 164 151 145 160 161 171 175 182 177 174 175 171 174 174 174 173 184 194 192 199 205 203 207 218 229 189 227 203 175 213 295 319 349 20 28 115
288 249 204 284 108 145 143 140 141 138 178 157 146 157 149 147 167 172 180 187 168 175 183 174 175 179 179 154 182 190 186 206 214 217 217 207 184 190 191 211 213 213 163 234 281 17 30 37 88
194 294 313 167 159 147 135 137 138 125 135 141 147 148 164 178 166 178 182 184 160 173 180 174 174 183 176 171 171 191 201 202 216 220 213 203 173 167 142 206 233 219 188 202 248 94 67 53 87
271 294 266 271 154 149 132 138 93 148 143 147 153 174 170 167 165 141 152 152 158 172 171 162 179 180 177 170 176 197 203 197 198 216 198 189 151 148 146 168 200 249 190 178 188 145 87 98 105
250 307 341 257 157 108 110 97 154 155 152 155 167 177 176 187 166 170 164 158 154 169 156 159 164 173 174 177 189 191 208 187 192 199 182 164 164 146 138 111 109 161 164 180 191 101 70 67 112
336 50 46 280 131 158 109 188 158 164 158 167 176 181 184 192 179 173 169 161 163 156 168 166 160 161 158 161 153 155 161 179 180 175 166 168 165 161 140 112 139 185 151 182 128 158 115 108 130
6 258 214 322 153 162 112 148 172 177 166 173 181 186 188 182 189 187 175 168 164 166 160 168 168 169 160 152 148 125 135 156 161 157 168 184 192 174 150 145 147 137 133 186 208 212 155 154 175
257 291 304 230 289 163 140 188 176 179 170 182 186 186 185 187 195 191 179 171 167 160 161 162 161 160 162 149 116 100 109 144 173 183 193 192 207 178 155 152 141 132 130 203 295 264 266 252 198
244 274 276 262 268 179 197 165 180 182 181 188 190 189 192 199 190 187 175 167 163 166 155 172 160 180 153 155 145 144 186 192 209 210 204 206 161 137 133 170 158 173 157 234 218 218 230 299 17
270 267 272 290 261 175 166 187 180 179 194 186 189 190 196 194 178 177 174 158 171 178 179 176 171 169 176 174 168 150 161 215 192 176 204 165 172 158 170 179 185 167 164 271 274 213 216 238 182
272 232 253 236 294 230 113 347 191 214 197 191 192 196 193 192 179 171 166 174 166 180 183 177 167 175 183 183 136 95 92 56 102 199 185 190 189 191 192 195 194 196 168 190 210 230 205 230 293
277 225 248 277 115 229 125 235 231 185 198 198 199 201 195 196 183 172 168 160 175 180 180 183 169 166 177 184 173 187 172 168 204 188 182 198 202 211 201 202 208 222 209 202 202 192 222 194 246
245 241 235 245 257 64 294 99 253 139 201 205 208 205 197 193 178 179 181 175 168 157 171 174 166 171 185 181 194 165 197 204 313 205 178 201 220 226 214 208 215 226 222 241 222 232 217 205 230
263 281 12 40 114 291 241 171 263 196 205 198 207 206 203 190 188 181 174 145 144 105 121 129 129 151 128 67 174 209 210 204 204 194 187 211 236 238 246 219 219 227 231 226 222 216 225 232 230
119 63 339 341 359 214 246 112 234 233 213 201 189 196 199 190 182 162 149 128 98 113 109 104 128 151 152 183 188 212 221 190 237 166 187 201 240 248 239 222 225 237 242 239 239 236 238 230 219
272 158 160 200 218 245 111 218 271 273 248 199 174 185 159 171 165 152 137 123 125 125 121 131 155 174 198 180 203 224 225 135 112 255 226 189 215 240 229 228 221 232 237 240 249 259 256 256 253
257 179 195 183 211 356 252 326 316 7 357 164 134 105 120 121 124 121 124 134 138 141 150 155 174 198 161 159 196 251 163 115 83 289 227 138 197 264 12 312 250 261 258 253 260 254 262 263 263
170 195 192 343 208 250 350 246 240 30 346 18 99 112 112 111 109 123 136 143 149 158 171 199 151 125 91 113 164 191 162 141 154 219 218 212 258 134 296 290 285 285 273 270 273 272 277 272 277
351 303 102 138 161 178 204 259 219 101 105 79 76 87 103 111 119 135 153 148 126 34 341 85 60 78 68 59 41 42 100 171 120 229 239 256 234 349 297 278 283 266 274 290 296 280 282 280 290
246 263 191 138 259 133 123 267 285 117 115 130 109 89 95 106 110 116 127 124 118 64 7 51 70 85 105 75 84 175 98 116 217 257 251 43 34 37 29 16 12 2 346 338 331 319 315 300 305